timestamp,wind_dir_avg,wind_spd_max_dir,wind_spd_avg,wind_spd_gust,battery_voltage,lat,long
2017-10-03 00:00:00+00:00,46.0,47.0,15.36,19.53,12.7,47.59359,-54.27349
2017-10-03 00:10:00+00:00,46.0,52.0,14.94,17.91,12.6,47.59359,-54.27349
2017-10-03 00:20:00+00:00,46.0,47.0,13.09,15.34,12.7,47.59359,-54.27349
2017-10-03 00:30:00+00:00,48.0,50.0,14.35,15.94,12.7,47.59359,-54.27349
2017-10-03 00:40:00+00:00,45.0,41.0,15.04,17.13,12.7,47.59359,-54.27349
2017-10-03 00:50:00+00:00,50.0,52.0,15.92,18.77,12.7,47.59359,-54.27349
2017-10-03 01:00:00+00:00,42.0,46.0,15.62,18.41,12.6,47.59359,-54.27349
2017-10-03 01:10:00+00:00,46.0,48.0,11.15,13.89,12.6,47.59359,-54.27349
2017-10-03 01:20:00+00:00,40.0,42.0,13.15,14.5,12.7,47.59359,-54.27349
2017-10-03 01:30:00+00:00,40.0,36.0,14.95,18.41,12.7,47.59359,-54.27349
2017-10-03 01:40:00+00:00,45.0,51.0,13.94,16.39,12.7,47.59359,-54.27349
2017-10-03 01:50:00+00:00,47.0,48.0,13.79,16.5,12.7,47.59359,-54.27349
2017-10-03 02:00:00+00:00,49.0,51.0,15.18,17.13,12.6,47.59359,-54.27349
2017-10-03 02:10:00+00:00,31.0,29.0,14.0,16.72,12.6,47.59359,-54.27349
2017-10-03 02:20:00+00:00,38.0,35.0,13.82,17.54,12.6,47.59359,-54.27349
2017-10-03 02:30:00+00:00,32.0,32.0,14.8,17.54,12.6,47.59359,-54.27349
2017-10-03 02:40:00+00:00,45.0,47.0,16.14,18.88,12.7,47.59359,-54.27349
2017-10-03 02:50:00+00:00,29.0,29.0,13.6,16.98,12.7,47.59359,-54.27349
2017-10-03 03:00:00+00:00,33.0,32.0,14.86,17.7,12.6,47.59359,-54.27349
2017-10-03 03:10:00+00:00,33.0,32.0,15.82,18.63,12.6,47.59359,-54.27349
2017-10-03 03:20:00+00:00,36.0,35.0,14.83,17.04,12.6,47.59359,-54.27349
2017-10-03 03:30:00+00:00,38.0,52.0,14.66,19.9,12.6,47.59359,-54.27349
2017-10-03 03:40:00+00:00,37.0,42.0,16.68,19.53,12.6,47.59359,-54.27349
2017-10-03 03:50:00+00:00,37.0,48.0,15.85,20.38,12.6,47.59359,-54.27349
2017-10-03 04:00:00+00:00,38.0,45.0,16.26,20.51,12.6,47.59359,-54.27349
2017-10-03 04:10:00+00:00,36.0,37.0,14.47,17.32,12.6,47.59359,-54.27349
2017-10-03 04:20:00+00:00,35.0,26.0,16.17,19.93,12.6,47.59359,-54.27349
2017-10-03 04:30:00+00:00,31.0,36.0,16.63,18.7,12.6,47.59359,-54.27349
2017-10-03 04:40:00+00:00,38.0,38.0,15.65,18.35,12.6,47.59359,-54.27349
2017-10-03 04:50:00+00:00,33.0,35.0,16.51,18.64,12.6,47.59359,-54.27349
2017-10-03 05:00:00+00:00,31.0,29.0,15.42,18.37,12.6,47.59359,-54.27349
2017-10-03 05:10:00+00:00,41.0,37.0,16.38,19.17,12.6,47.59359,-54.27349
2017-10-03 05:20:00+00:00,29.0,30.0,14.57,17.67,12.6,47.59359,-54.27349
2017-10-03 05:30:00+00:00,33.0,33.0,14.61,16.0,12.6,47.59359,-54.27349
2017-10-03 05:40:00+00:00,26.0,28.0,13.67,16.84,12.6,47.59359,-54.27349
2017-10-03 05:50:00+00:00,34.0,40.0,13.15,16.85,12.6,47.59359,-54.27349
2017-10-03 06:00:00+00:00,35.0,39.0,15.07,17.42,12.6,47.59359,-54.27349
2017-10-03 06:10:00+00:00,39.0,39.0,15.27,17.53,12.6,47.59359,-54.27349
2017-10-03 06:20:00+00:00,30.0,36.0,15.34,18.25,12.6,47.59359,-54.27349
2017-10-03 06:30:00+00:00,33.0,38.0,15.0,18.9,12.6,47.59359,-54.27349
2017-10-03 06:40:00+00:00,35.0,35.0,12.95,16.19,12.6,47.59359,-54.27349
2017-10-03 06:50:00+00:00,35.0,44.0,15.78,20.07,12.6,47.59359,-54.27349
2017-10-03 07:00:00+00:00,32.0,36.0,15.12,17.42,12.6,47.59359,-54.27349
2017-10-03 07:10:00+00:00,33.0,32.0,17.19,20.14,12.5,47.59359,-54.27349
2017-10-03 07:20:00+00:00,37.0,39.0,17.88,19.85,12.6,47.59359,-54.27349
2017-10-03 07:30:00+00:00,39.0,51.0,17.33,22.39,12.6,47.59359,-54.27349
2017-10-03 07:40:00+00:00,31.0,35.0,14.69,18.35,12.6,47.59359,-54.27349
2017-10-03 07:50:00+00:00,31.0,30.0,15.6,17.56,12.6,47.59359,-54.27349
2017-10-03 08:00:00+00:00,40.0,41.0,15.34,18.1,12.6,47.59359,-54.27349
2017-10-03 08:10:00+00:00,36.0,39.0,16.0,19.26,12.5,47.59359,-54.27349
2017-10-03 08:20:00+00:00,31.0,35.0,16.36,19.96,12.6,47.59359,-54.27349
2017-10-03 08:30:00+00:00,34.0,36.0,15.63,19.51,12.6,47.59359,-54.27349
2017-10-03 08:40:00+00:00,41.0,51.0,17.7,22.37,12.6,47.59359,-54.27349
2017-10-03 08:50:00+00:00,30.0,30.0,16.03,19.83,12.6,47.59359,-54.27349
2017-10-03 09:00:00+00:00,32.0,38.0,13.3,15.88,12.6,47.59359,-54.27349
2017-10-03 09:10:00+00:00,32.0,38.0,13.08,17.19,12.5,47.59359,-54.27349
2017-10-03 09:20:00+00:00,34.0,32.0,14.4,16.73,12.6,47.59359,-54.27349
2017-10-03 09:30:00+00:00,36.0,36.0,14.96,16.9,12.6,47.59359,-54.27349
2017-10-03 09:40:00+00:00,35.0,37.0,15.73,18.37,12.6,47.59359,-54.27349
2017-10-03 09:50:00+00:00,39.0,48.0,15.96,20.38,12.6,47.59359,-54.27349
2017-10-03 10:00:00+00:00,36.0,37.0,14.29,18.25,12.6,47.59359,-54.27349
2017-10-03 10:10:00+00:00,38.0,39.0,14.55,18.64,12.5,47.59359,-54.27349
2017-10-03 10:20:00+00:00,42.0,48.0,17.01,22.59,12.6,47.59359,-54.27349
2017-10-03 10:30:00+00:00,34.0,32.0,13.54,15.49,12.6,47.59359,-54.27349
2017-10-03 10:40:00+00:00,30.0,31.0,13.71,16.06,12.6,47.59359,-54.27349
2017-10-03 10:50:00+00:00,25.0,39.0,13.52,15.78,12.8,47.59359,-54.27349
2017-10-03 11:00:00+00:00,27.0,32.0,13.94,16.05,13.0,47.59359,-54.27349
2017-10-03 11:10:00+00:00,29.0,29.0,12.75,16.21,13.8,47.59359,-54.27349
2017-10-03 11:20:00+00:00,29.0,34.0,13.31,16.39,13.8,47.59359,-54.27349
2017-10-03 11:30:00+00:00,37.0,38.0,14.07,15.83,13.9,47.59359,-54.27349
2017-10-03 11:40:00+00:00,27.0,24.0,14.17,15.61,13.9,47.59359,-54.27349
2017-10-03 11:50:00+00:00,34.0,35.0,14.58,17.73,13.9,47.59359,-54.27349
2017-10-03 12:00:00+00:00,39.0,45.0,12.28,14.2,13.9,47.59359,-54.27349
2017-10-03 12:10:00+00:00,41.0,48.0,14.23,19.43,13.9,47.59359,-54.27349
2017-10-03 12:20:00+00:00,40.0,42.0,14.65,16.82,14.1,47.59359,-54.27349
2017-10-03 12:30:00+00:00,42.0,42.0,15.01,17.72,14.0,47.59359,-54.27349
2017-10-03 12:40:00+00:00,33.0,31.0,14.02,15.68,14.0,47.59359,-54.27349
2017-10-03 12:50:00+00:00,48.0,51.0,14.75,17.61,14.0,47.59359,-54.27349
2017-10-03 13:00:00+00:00,36.0,34.0,13.7,17.04,14.0,47.59359,-54.27349
2017-10-03 13:10:00+00:00,36.0,39.0,12.01,13.82,14.0,47.59359,-54.27349
2017-10-03 13:20:00+00:00,37.0,42.0,13.68,17.1,14.0,47.59359,-54.27349
2017-10-03 13:30:00+00:00,46.0,49.0,13.2,16.07,14.0,47.59359,-54.27349
2017-10-03 13:40:00+00:00,31.0,30.0,12.87,15.82,14.0,47.59359,-54.27349
2017-10-03 13:50:00+00:00,46.0,50.0,12.51,14.22,13.6,47.59359,-54.27349
2017-10-03 14:00:00+00:00,33.0,32.0,13.04,15.75,14.1,47.59359,-54.27349
2017-10-03 14:10:00+00:00,33.0,31.0,11.18,13.2,14.1,47.59359,-54.27349
2017-10-03 14:20:00+00:00,23.0,30.0,11.17,14.69,13.8,47.59359,-54.27349
2017-10-03 14:30:00+00:00,30.0,34.0,12.52,14.83,14.0,47.59359,-54.27349
2017-10-03 14:40:00+00:00,39.0,41.0,12.27,14.81,14.0,47.59359,-54.27349
2017-10-03 14:50:00+00:00,50.0,58.0,12.63,16.78,14.2,47.59359,-54.27349
2017-10-03 15:00:00+00:00,30.0,33.0,10.87,12.49,14.1,47.59359,-54.27349
2017-10-03 15:10:00+00:00,21.0,14.0,13.86,16.27,14.0,47.59359,-54.27349
2017-10-03 15:20:00+00:00,34.0,44.0,13.51,16.1,14.1,47.59359,-54.27349
2017-10-03 15:30:00+00:00,37.0,49.0,15.24,17.95,14.1,47.59359,-54.27349
2017-10-03 15:40:00+00:00,27.0,25.0,13.92,16.96,14.1,47.59359,-54.27349
2017-10-03 15:50:00+00:00,29.0,26.0,14.65,16.44,14.1,47.59359,-54.27349
2017-10-03 16:00:00+00:00,25.0,33.0,11.1,13.39,13.6,47.59359,-54.27349
2017-10-03 16:10:00+00:00,19.0,15.0,12.42,15.16,14.0,47.59359,-54.27349
2017-10-03 16:20:00+00:00,27.0,32.0,11.23,13.09,14.1,47.59359,-54.27349
2017-10-03 16:30:00+00:00,12.0,9.0,14.77,16.27,14.0,47.59359,-54.27349
2017-10-03 16:40:00+00:00,30.0,30.0,13.97,16.83,14.0,47.59359,-54.27349
2017-10-03 16:50:00+00:00,20.0,20.0,11.38,13.3,14.0,47.59359,-54.27349
2017-10-03 17:00:00+00:00,13.0,13.0,13.63,15.91,13.9,47.59359,-54.27349
2017-10-03 17:10:00+00:00,13.0,10.0,15.65,17.84,13.9,47.59359,-54.27349
2017-10-03 17:20:00+00:00,19.0,18.0,13.44,16.88,13.9,47.59359,-54.27349
2017-10-03 17:30:00+00:00,20.0,15.0,14.36,17.01,13.8,47.59359,-54.27349
2017-10-03 17:40:00+00:00,10.0,8.0,12.97,14.87,13.8,47.59359,-54.27349
2017-10-03 17:50:00+00:00,14.0,16.0,10.74,12.78,13.8,47.59359,-54.27349
2017-10-03 18:00:00+00:00,20.0,10.0,11.03,12.84,13.9,47.59359,-54.27349
2017-10-03 18:10:00+00:00,9.0,8.0,13.87,16.36,13.8,47.59359,-54.27349
2017-10-03 18:20:00+00:00,13.0,14.0,13.03,15.0,13.8,47.59359,-54.27349
2017-10-03 18:30:00+00:00,20.0,16.0,13.35,15.8,13.8,47.59359,-54.27349
2017-10-03 18:40:00+00:00,13.0,13.0,13.89,16.55,13.7,47.59359,-54.27349
2017-10-03 18:50:00+00:00,24.0,22.0,11.38,13.78,13.7,47.59359,-54.27349
2017-10-03 19:00:00+00:00,21.0,13.0,11.93,14.51,13.7,47.59359,-54.27349
2017-10-03 19:10:00+00:00,15.0,9.0,13.17,16.12,13.7,47.59359,-54.27349
2017-10-03 19:20:00+00:00,14.0,17.0,14.06,16.07,13.7,47.59359,-54.27349
2017-10-03 19:30:00+00:00,13.0,13.0,11.7,13.2,13.7,47.59359,-54.27349
2017-10-03 19:40:00+00:00,20.0,22.0,11.4,14.14,13.8,47.59359,-54.27349
2017-10-03 19:50:00+00:00,10.0,4.0,12.48,14.28,13.7,47.59359,-54.27349
2017-10-03 20:00:00+00:00,17.0,13.0,11.55,13.7,13.7,47.59359,-54.27349
2017-10-03 20:10:00+00:00,13.0,8.0,11.66,13.62,13.7,47.59359,-54.27349
2017-10-03 20:20:00+00:00,11.0,15.0,12.08,13.42,14.0,47.59359,-54.27349
2017-10-03 20:30:00+00:00,23.0,29.0,9.26,11.61,13.9,47.59359,-54.27349
2017-10-03 20:40:00+00:00,30.0,32.0,11.08,12.0,13.8,47.59359,-54.27349
2017-10-03 20:50:00+00:00,24.0,28.0,9.08,10.68,13.7,47.59359,-54.27349
2017-10-03 21:00:00+00:00,17.0,12.0,8.62,9.9,13.5,47.59359,-54.27349
2017-10-03 21:10:00+00:00,14.0,13.0,9.67,11.78,13.3,47.59359,-54.27349
2017-10-03 21:20:00+00:00,32.0,36.0,8.84,9.87,13.3,47.59359,-54.27349
2017-10-03 21:30:00+00:00,18.0,16.0,9.62,11.0,13.2,47.59359,-54.27349
2017-10-03 21:40:00+00:00,23.0,34.0,8.15,10.24,13.2,47.59359,-54.27349
2017-10-03 21:50:00+00:00,25.0,32.0,9.08,10.17,13.1,47.59359,-54.27349
2017-10-03 22:00:00+00:00,24.0,27.0,9.08,11.43,13.0,47.59359,-54.27349
2017-10-03 22:10:00+00:00,17.0,14.0,8.17,9.87,12.8,47.59359,-54.27349
2017-10-03 22:20:00+00:00,20.0,18.0,8.91,10.36,12.9,47.59359,-54.27349
2017-10-03 22:30:00+00:00,19.0,16.0,8.32,9.56,12.8,47.59359,-54.27349
2017-10-03 22:40:00+00:00,20.0,31.0,7.32,9.25,12.8,47.59359,-54.27349
2017-10-03 22:50:00+00:00,28.0,31.0,8.73,9.61,12.8,47.59359,-54.27349
2017-10-03 23:00:00+00:00,25.0,29.0,7.88,9.38,12.7,47.59359,-54.27349
2017-10-03 23:10:00+00:00,23.0,35.0,7.12,8.66,12.6,47.59359,-54.27349
2017-10-03 23:20:00+00:00,25.0,35.0,5.89,7.39,12.7,47.59359,-54.27349
2017-10-03 23:30:00+00:00,27.0,27.0,6.92,8.32,12.7,47.59359,-54.27349
2017-10-03 23:40:00+00:00,33.0,44.0,5.62,6.7,12.7,47.59359,-54.27349
2017-10-03 23:50:00+00:00,34.0,35.0,6.99,8.22,12.7,47.59359,-54.27349
